Wind_Speed
7 4 2 1 4 5 2 2 3 4 5 2 16 4 7 5 2 3 25 24 22 20 18 17 16 17 16 16 16 17 16 16 16 16 15 15 13 12 12 11 11 10 10 10 11 13 14 14 15
3 5 4 2 5 4 3 1 5 3 8 24 16 12 5 4 5 19 27 25 20 20 19 18 16 17 16 16 16 16 16 15 14 14 14 13 12 12 10 10 10 10 11 11 12 13 12 12 12
5 3 4 3 3 3 4 1 6 14 15 9 7 10 3 3 12 25 26 26 22 20 18 17 16 16 16 16 16 14 15 14 13 12 13 12 11 11 10 10 10 11 11 12 13 13 12 12 11
2 4 2 3 4 2 1 4 15 8 12 8 17 8 7 15 26 14 27 25 22 20 18 17 16 16 15 15 14 15 14 13 13 13 13 13 13 14 14 12 12 12 13 15 14 13 13 12 10
2 2 3 3 3 2 4 8 10 4 6 10 6 5 8 5 13 23 25 24 22 20 19 17 15 17 14 14 14 14 13 13 14 15 15 16 16 16 14 12 14 15 16 16 15 14 13 12 11
1 1 4 2 2 3 5 8 6 11 13 14 16 10 5 11 19 21 20 21 19 19 19 16 16 16 15 15 14 13 12 13 15 17 18 18 18 19 18 18 18 18 19 18 15 14 13 13 12
3 3 2 3 4 3 3 8 5 6 12 8 10 5 10 18 19 19 18 18 18 18 18 17 17 16 14 15 14 12 12 13 16 18 19 20 21 22 22 22 22 21 20 18 15 13 12 13 14
3 3 3 3 5 3 8 4 13 14 6 13 15 5 10 24 20 19 17 17 16 18 19 19 18 17 16 14 12 11 12 14 17 20 21 21 22 21 22 21 20 18 16 14 12 12 12 13 13
2 4 3 5 7 5 15 5 16 5 17 6 4 21 27 25 20 18 17 14 14 18 21 22 21 18 16 14 12 10 12 14 18 20 20 19 19 18 20 18 15 12 10 8 8 8 10 11 14
4 3 2 4 6 8 15 14 11 8 10 6 18 22 25 23 21 20 18 15 16 19 21 21 23 19 17 15 12 11 12 15 19 19 17 15 15 15 13 13 11 8 5 5 5 6 9 10 10
3 2 5 2 11 22 17 10 3 19 2 9 30 30 27 23 20 19 17 15 14 19 21 22 24 19 17 15 13 12 14 17 19 19 17 16 12 11 12 13 12 12 10 6 4 6 7 8 9
3 6 4 3 17 18 15 14 8 6 3 15 36 31 28 24 21 21 18 20 18 18 22 26 26 21 18 14 14 14 13 15 17 19 17 15 13 10 9 10 10 10 9 7 5 4 5 6 7
6 4 7 13 20 22 19 10 8 2 16 30 30 28 27 24 20 19 17 19 18 18 21 27 27 22 18 16 16 13 12 12 15 19 17 13 10 9 8 8 7 6 5 4 3 2 4 6 6
8 8 11 9 16 17 10 8 8 15 26 31 30 28 27 26 22 19 18 20 20 18 20 25 25 23 18 19 17 11 11 10 11 18 17 12 8 8 8 7 4 2 2 1 1 5 7 7 4
5 2 3 6 6 3 16 2 2 26 27 31 29 26 26 25 23 20 19 19 19 18 23 27 24 22 18 17 14 12 10 10 10 16 17 13 10 8 8 7 3 2 3 3 3 6 9 7 7
4 4 2 2 6 9 3 4 7 27 31 26 29 26 25 25 24 20 18 17 17 18 21 30 27 20 19 16 15 12 10 10 8 14 10 10 10 10 10 8 8 6 6 6 6 6 4 4 6
3 2 2 3 8 5 2 1 10 25 26 24 25 26 25 25 23 21 21 18 17 17 20 26 28 22 18 17 15 11 12 12 10 10 10 7 7 9 10 12 13 11 9 8 9 7 7 7 8
4 2 2 5 6 4 5 3 11 23 21 23 27 27 26 26 26 24 23 21 20 19 18 20 24 22 19 17 16 15 14 15 15 12 11 7 8 10 14 14 15 14 13 11 11 10 10 12 14
4 3 3 4 7 4 6 5 12 21 19 18 22 26 29 30 26 24 23 22 24 23 21 21 22 23 20 19 18 19 17 15 16 14 13 12 10 11 14 15 16 16 16 16 15 14 14 13 16
4 3 5 2 5 4 5 6 13 20 22 25 24 28 30 29 27 27 29 28 27 26 25 24 22 22 21 20 19 18 16 16 17 17 16 15 13 13 12 13 17 17 18 18 17 17 18 18 17
2 6 4 3 5 3 5 2 9 12 15 20 23 28 31 31 26 26 27 30 28 29 27 25 23 22 22 21 21 20 21 22 21 22 21 19 17 15 15 14 16 19 19 19 20 21 21 21 19
3 2 5 8 4 3 2 3 3 10 15 18 24 27 30 30 27 25 26 28 29 26 21 22 23 21 23 20 20 21 20 20 20 24 25 24 23 21 19 18 17 20 22 21 20 21 22 23 22
3 4 4 4 5 4 4 3 5 3 11 15 22 32 31 26 25 24 26 28 26 25 24 24 23 22 23 23 21 22 23 22 19 18 24 28 27 27 25 23 21 21 19 20 22 27 26 24 24
5 6 8 5 3 2 3 4 3 3 5 7 15 27 27 24 18 20 24 27 25 24 24 24 22 24 26 26 26 26 26 24 24 21 21 23 28 30 30 33 29 25 25 26 24 23 27 29 27
7 6 3 3 3 5 5 4 1 9 9 13 15 22 25 18 14 12 12 7 18 21 21 21 20 20 28 27 26 27 28 28 28 27 26 25 26 29 33 29 32 31 28 29 27 26 25 29 32
3 6 6 5 4 3 4 4 6 5 11 13 18 26 29 21 13 2 3 6 7 14 19 20 18 20 21 23 24 25 27 28 30 31 31 31 32 31 30 33 33 34 33 29 31 32 29 29 29
3 2 4 7 3 3 2 2 3 10 10 12 15 18 21 20 13 12 2 4 7 7 6 6 7 9 10 15 17 19 21 26 30 32 34 36 38 37 34 32 34 35 36 35 33 34 35 33 33
3 5 3 3 4 2 3 3 4 8 8 8 10 8 7 11 12 10 8 8 12 11 9 7 3 1 3 6 9 12 16 20 23 28 32 33 32 31 34 37 35 34 35 36 36 36 36 36 34
4 3 7 6 3 5 3 2 5 2 3 7 13 17 15 8 7 11 16 14 11 7 5 6 5 6 7 7 7 9 10 13 16 19 22 23 24 25 29 32 38 38 38 37 37 38 36 37 36
2 3 4 5 3 1 3 2 3 5 8 15 17 23 24 26 25 21 15 13 10 8 6 6 8 11 14 17 19 19 19 20 21 22 24 25 24 24 24 28 33 36 42 42 40 41 40 41 37
Wind_Direction
144 120 131 194 55 66 40 76 118 105 136 177 157 133 124 42 31 149 141 153 151 143 138 126 125 125 123 119 120 117 114 112 112 109 105 98 92 89 90 92 93 98 99 98 98 98 97 97 96
74 84 85 59 86 73 302 169 120 144 119 121 95 100 62 68 76 138 144 153 149 145 140 128 128 127 123 123 121 120 117 116 113 109 98 92 90 87 89 100 108 104 97 104 102 104 100 95 98
83 46 10 63 99 140 161 78 115 128 133 118 111 81 63 69 128 137 150 152 151 148 141 133 132 131 125 124 121 119 119 113 107 99 95 92 93 99 92 103 113 117 108 111 105 101 100 88 84
84 20 18 73 136 241 84 118 121 111 91 87 115 76 75 95 138 142 150 154 154 153 147 141 137 136 128 125 124 123 119 107 99 96 94 94 90 87 79 86 98 116 118 117 111 103 93 84 78
116 359 24 57 55 61 76 120 125 94 82 105 120 94 97 86 148 145 152 159 160 159 151 148 141 139 131 129 127 126 118 104 100 95 95 93 87 86 85 76 90 106 117 119 109 100 92 83 72
188 153 51 75 31 45 70 124 84 83 109 115 100 101 66 131 139 144 153 163 166 167 158 152 148 146 140 133 130 132 117 104 103 100 98 92 88 85 86 88 93 103 112 114 109 99 84 72 70
155 107 88 76 100 56 134 134 84 96 107 92 120 91 127 149 147 142 146 155 169 174 170 164 156 150 141 139 142 133 123 110 108 107 103 98 93 86 86 88 92 99 104 105 100 89 76 67 64
112 86 106 122 167 126 142 97 125 114 71 125 108 133 152 160 155 150 151 155 167 177 179 174 163 153 150 150 143 139 126 118 118 117 110 106 101 94 90 89 91 95 96 91 86 78 68 67 66
67 68 165 160 162 147 140 119 150 129 134 119 30 149 154 157 158 157 158 166 172 181 180 178 166 161 156 153 149 145 133 129 131 128 121 115 104 95 93 90 85 84 86 84 74 71 68 63 63
64 84 204 181 158 156 148 128 148 123 146 82 111 144 154 155 161 162 162 159 157 167 175 171 168 165 156 158 153 152 141 140 140 136 130 123 111 98 88 89 88 72 91 102 88 67 67 58 56
40 64 352 12 143 143 141 123 125 140 214 185 147 157 159 161 167 168 163 153 148 163 168 173 169 165 162 159 156 144 137 143 148 143 137 122 112 96 88 75 71 84 87 76 59 55 50 48 38
55 337 276 138 140 140 147 143 126 133 239 179 157 155 160 167 167 170 165 160 150 156 165 168 172 171 167 162 156 148 140 146 152 151 146 138 126 110 117 103 104 88 78 69 64 39 25 14 9
18 337 6 133 144 142 145 147 152 137 150 156 156 161 167 172 170 173 170 167 158 154 162 169 172 170 166 160 156 152 151 144 158 162 159 152 139 143 132 121 114 93 76 59 59 4 344 338 346
184 234 318 102 151 151 129 134 113 152 157 160 166 173 177 177 175 175 174 176 172 162 161 170 166 167 164 159 157 161 163 156 164 173 172 171 165 150 152 150 151 120 150 157 255 295 293 298 311
164 83 149 67 107 109 118 61 110 157 166 164 177 179 182 188 188 184 173 175 171 166 163 165 165 165 162 164 167 166 171 179 171 178 187 191 191 188 185 189 207 262 253 261 285 312 299 291 295
111 73 117 275 107 154 114 237 136 159 160 170 182 190 190 195 200 195 187 178 172 166 170 173 169 166 173 172 169 169 176 180 183 190 194 208 215 225 227 236 246 271 267 251 267 302 316 306 280
8 186 179 154 189 139 103 191 159 168 165 174 187 193 198 201 210 211 202 190 184 181 170 181 188 194 190 190 191 191 200 202 199 211 224 221 239 247 252 271 257 258 261 260 266 295 326 316 303
210 201 197 187 201 155 159 188 162 176 178 179 193 203 205 209 215 215 209 205 202 196 192 189 195 199 200 202 211 219 218 219 215 219 222 244 251 259 263 267 249 250 258 260 272 288 307 320 320
168 175 217 220 166 131 181 152 180 183 186 188 193 201 212 217 220 219 219 219 214 210 207 205 205 204 206 213 223 230 227 223 223 231 242 250 256 262 288 257 246 255 257 259 268 279 287 298 310
255 177 247 314 139 129 168 200 185 190 199 194 194 202 213 216 224 224 224 227 223 218 215 216 216 216 219 225 234 240 240 244 245 245 249 247 253 261 282 268 249 258 260 262 270 279 286 293 309
107 162 166 162 109 57 110 313 188 207 200 206 210 211 215 219 220 219 223 226 228 223 223 221 222 224 227 232 235 241 243 247 249 248 250 251 258 261 265 272 259 256 260 266 267 277 283 290 293
104 139 110 125 98 183 69 263 255 206 202 201 208 211 217 220 225 227 222 222 225 224 227 228 228 230 233 237 240 245 251 256 266 266 260 259 261 262 261 263 262 260 256 266 272 278 281 280 284
179 66 63 96 96 93 358 80 306 156 208 211 200 211 214 217 225 227 228 227 225 225 229 228 233 236 238 240 246 252 258 261 271 278 266 260 264 268 265 263 262 259 260 267 273 272 275 279 279
137 62 40 58 88 48 338 138 304 347 299 260 207 201 210 213 226 241 231 224 224 226 229 231 235 242 241 242 248 256 262 271 275 281 281 274 267 264 268 266 261 261 262 265 269 279 271 270 276
70 60 359 355 12 205 306 73 44 318 318 244 179 165 182 193 204 223 217 219 221 229 233 241 239 252 248 250 258 262 265 269 274 276 280 285 281 272 264 266 261 261 270 267 267 272 279 271 268
62 143 151 209 190 218 357 4 311 346 36 74 124 145 154 174 180 67 179 178 207 220 240 247 251 257 259 263 265 270 273 275 276 279 282 284 282 280 277 263 260 263 266 266 266 269 273 275 275
168 83 166 106 4 74 251 118 91 24 43 59 89 119 143 171 195 223 254 151 182 190 218 246 259 264 271 266 270 277 282 277 276 278 280 283 284 280 276 272 267 264 263 264 264 266 274 277 272
114 145 68 16 131 133 20 66 344 356 12 38 47 88 142 187 217 217 188 130 108 120 124 129 129 79 325 311 299 290 287 286 286 286 289 291 293 296 281 273 272 269 269 269 264 266 269 269 270
1 39 53 109 102 144 130 262 1 41 31 77 79 92 98 127 163 161 157 136 129 102 78 51 36 19 6 353 331 321 312 309 310 312 311 312 302 291 290 282 272 273 270 269 269 267 268 270 270
99 108 127 119 207 72 125 265 358 44 40 80 76 94 92 90 93 105 99 97 89 67 36 2 346 339 330 324 321 321 321 322 324 324 322 322 318 309 296 284 283 276 270 270 268 267 268 267 268
Height
1501 1500 1501 1501 1510 1511 1523 1517 1511 1517 1519 1518 1522 1523 1527 1529 1530 1540 1537 1543 1546 1550 1552 1553 1555 1557 1559 1560 1560 1561 1562 1563 1563 1564 1564 1564 1564 1564 1564 1564 1565 1565 1566 1566 1567 1567 1568 1568 1568
1501 1501 1503 1501 1516 1529 1526 1511 1515 1513 1516 1518 1521 1525 1529 1533 1533 1535 1539 1544 1549 1552 1554 1556 1558 1560 1561 1562 1563 1564 1565 1566 1567 1567 1567 1567 1567 1567 1566 1566 1567 1567 1568 1568 1569 1570 1571 1571 1571
1503 1503 1505 1506 1517 1527 1523 1510 1513 1515 1517 1519 1524 1528 1531 1535 1535 1538 1541 1546 1550 1554 1556 1558 1560 1562 1564 1565 1566 1567 1569 1569 1569 1570 1569 1569 1569 1569 1568 1568 1569 1569 1570 1571 1572 1573 1573 1573 1574
1504 1505 1508 1514 1517 1510 1512 1511 1513 1517 1519 1520 1523 1531 1535 1537 1539 1541 1544 1548 1552 1556 1558 1561 1563 1565 1566 1567 1569 1570 1571 1572 1572 1572 1572 1572 1572 1571 1571 1571 1571 1571 1573 1574 1575 1576 1576 1576 1577
1507 1507 1513 1514 1513 1508 1511 1513 1516 1518 1521 1524 1524 1535 1538 1541 1542 1544 1547 1551 1555 1557 1560 1563 1565 1567 1569 1570 1571 1573 1574 1575 1575 1575 1575 1575 1575 1574 1574 1574 1574 1574 1575 1577 1578 1579 1579 1579 1579
1507 1509 1520 1525 1517 1512 1514 1516 1517 1521 1523 1526 1528 1533 1542 1544 1545 1547 1550 1553 1557 1560 1563 1565 1567 1569 1570 1573 1574 1576 1577 1577 1578 1578 1578 1578 1578 1578 1577 1577 1577 1578 1579 1580 1581 1582 1582 1582 1581
1506 1509 1520 1519 1522 1518 1517 1519 1521 1525 1527 1529 1530 1535 1543 1545 1548 1549 1552 1555 1558 1562 1565 1567 1569 1571 1574 1575 1576 1578 1579 1580 1581 1582 1582 1582 1582 1582 1582 1581 1582 1583 1584 1584 1585 1585 1585 1585 1584
1505 1507 1516 1517 1523 1521 1518 1521 1523 1526 1529 1531 1533 1538 1543 1545 1548 1551 1554 1557 1559 1562 1566 1569 1571 1573 1575 1577 1579 1580 1582 1583 1584 1585 1585 1586 1586 1586 1586 1587 1587 1588 1588 1589 1589 1588 1588 1588 1587
1505 1515 1522 1516 1518 1517 1517 1522 1527 1527 1530 1532 1534 1535 1539 1544 1548 1551 1554 1556 1559 1562 1565 1569 1572 1575 1577 1579 1581 1583 1584 1585 1586 1587 1588 1589 1589 1590 1591 1591 1592 1592 1592 1592 1592 1592 1592 1591 1591
1507 1516 1512 1507 1509 1511 1517 1520 1525 1528 1532 1535 1536 1541 1544 1546 1549 1551 1553 1556 1559 1562 1566 1571 1575 1577 1579 1581 1583 1584 1586 1587 1589 1590 1591 1592 1592 1593 1594 1595 1595 1595 1595 1595 1595 1595 1595 1594 1594
1510 1514 1508 1505 1506 1511 1517 1522 1526 1529 1533 1532 1534 1540 1545 1548 1551 1554 1556 1559 1560 1563 1567 1572 1576 1578 1581 1583 1585 1586 1587 1589 1591 1592 1594 1594 1595 1596 1596 1596 1596 1597 1597 1597 1597 1597 1597 1597 1596
1512 1510 1508 1506 1508 1513 1519 1524 1529 1530 1530 1530 1536 1541 1546 1549 1551 1554 1557 1559 1562 1564 1568 1572 1575 1579 1582 1585 1587 1588 1590 1591 1593 1594 1596 1597 1597 1598 1598 1598 1598 1598 1599 1599 1599 1598 1598 1598 1598
1512 1510 1508 1507 1511 1515 1521 1525 1528 1533 1532 1536 1541 1545 1547 1551 1554 1557 1560 1562 1563 1565 1568 1571 1575 1580 1583 1586 1588 1590 1592 1593 1594 1596 1597 1599 1599 1600 1600 1601 1600 1600 1600 1601 1601 1600 1600 1600 1599
1514 1513 1511 1511 1514 1518 1523 1528 1529 1537 1536 1539 1543 1546 1549 1552 1555 1558 1561 1563 1564 1567 1570 1574 1577 1581 1584 1586 1589 1591 1593 1595 1596 1597 1598 1599 1601 1601 1601 1602 1602 1602 1602 1602 1602 1601 1601 1600 1600
1515 1517 1514 1514 1517 1521 1523 1530 1531 1534 1538 1541 1545 1547 1551 1554 1557 1558 1560 1563 1566 1569 1572 1576 1579 1582 1585 1587 1589 1591 1593 1595 1596 1598 1599 1600 1601 1602 1603 1603 1603 1603 1603 1603 1602 1602 1601 1601 1600
1517 1521 1528 1517 1517 1523 1524 1539 1531 1535 1537 1543 1546 1549 1552 1555 1556 1559 1562 1565 1568 1570 1572 1576 1579 1582 1585 1588 1590 1591 1593 1595 1597 1598 1600 1601 1602 1603 1603 1604 1604 1604 1604 1603 1603 1602 1602 1601 1601
1523 1533 1528 1524 1518 1520 1525 1535 1532 1536 1539 1543 1545 1548 1551 1554 1558 1560 1563 1565 1568 1571 1573 1576 1579 1581 1585 1587 1590 1591 1593 1595 1596 1598 1599 1600 1601 1601 1602 1603 1604 1604 1604 1604 1603 1602 1602 1601 1600
1530 1530 1526 1527 1522 1521 1527 1530 1531 1535 1539 1541 1544 1547 1550 1553 1555 1558 1562 1566 1569 1571 1575 1578 1580 1582 1585 1588 1589 1591 1592 1593 1595 1596 1598 1598 1600 1600 1601 1601 1602 1603 1604 1604 1603 1602 1602 1601 1600
1512 1520 1522 1517 1515 1521 1525 1529 1530 1532 1537 1542 1544 1546 1549 1551 1554 1557 1560 1565 1568 1571 1574 1576 1579 1581 1584 1586 1587 1589 1590 1592 1594 1595 1596 1597 1598 1599 1599 1599 1600 1601 1602 1603 1603 1602 1601 1601 1600
1513 1522 1524 1514 1514 1520 1527 1529 1528 1529 1531 1536 1541 1543 1546 1550 1553 1556 1558 1561 1564 1567 1571 1575 1577 1580 1582 1584 1586 1587 1588 1590 1592 1593 1594 1595 1596 1597 1597 1597 1598 1599 1600 1601 1602 1601 1601 1600 1600
1513 1521 1518 1520 1519 1522 1527 1535 1531 1529 1531 1536 1539 1541 1545 1547 1550 1553 1555 1557 1561 1565 1568 1572 1575 1577 1579 1582 1584 1585 1586 1587 1588 1590 1591 1593 1594 1595 1595 1595 1596 1597 1597 1598 1599 1600 1599 1599 1600
1516 1509 1512 1520 1528 1545 1527 1557 1535 1529 1529 1531 1534 1537 1541 1544 1547 1550 1553 1556 1559 1563 1566 1570 1573 1575 1578 1580 1582 1583 1584 1584 1585 1586 1589 1590 1591 1592 1593 1593 1593 1594 1595 1596 1596 1597 1597 1596 1597
1514 1509 1514 1519 1535 1536 1538 1551 1542 1529 1533 1527 1529 1532 1537 1541 1544 1548 1550 1553 1557 1561 1565 1569 1571 1574 1576 1579 1580 1582 1583 1583 1584 1584 1584 1586 1588 1589 1589 1590 1590 1590 1591 1592 1592 1593 1594 1594 1594
1508 1515 1526 1536 1544 1559 1550 1555 1556 1547 1540 1531 1528 1531 1535 1541 1546 1547 1549 1550 1555 1560 1563 1567 1569 1572 1574 1577 1579 1580 1581 1582 1582 1582 1581 1582 1582 1583 1584 1585 1586 1586 1587 1587 1588 1588 1588 1589 1590
1513 1531 1561 1560 1565 1566 1554 1556 1544 1539 1531 1523 1523 1528 1536 1543 1548 1549 1549 1552 1556 1558 1561 1565 1567 1569 1572 1574 1576 1577 1577 1578 1578 1578 1578 1577 1577 1577 1577 1579 1580 1581 1581 1582 1583 1583 1582 1583 1584
1522 1528 1557 1564 1575 1564 1549 1564 1553 1536 1531 1526 1526 1529 1535 1542 1547 1553 1555 1553 1555 1556 1559 1562 1564 1567 1568 1571 1572 1572 1572 1572 1572 1572 1571 1570 1570 1570 1571 1572 1573 1574 1575 1575 1577 1577 1576 1577 1577
1522 1535 1531 1562 1567 1565 1556 1546 1541 1540 1537 1536 1535 1536 1538 1543 1545 1551 1556 1553 1556 1557 1560 1561 1564 1565 1567 1567 1567 1567 1567 1567 1566 1565 1564 1562 1561 1561 1563 1564 1565 1566 1567 1568 1568 1569 1569 1570 1571
1513 1525 1541 1555 1567 1572 1562 1558 1559 1548 1547 1543 1542 1542 1543 1545 1550 1554 1557 1557 1559 1560 1561 1563 1564 1564 1565 1565 1564 1564 1564 1563 1562 1560 1558 1556 1555 1553 1553 1555 1556 1558 1559 1560 1560 1560 1561 1562 1563
1526 1530 1546 1554 1563 1570 1580 1568 1556 1554 1550 1547 1546 1546 1546 1548 1550 1554 1557 1558 1560 1564 1564 1564 1564 1563 1563 1563 1563 1563 1562 1561 1559 1556 1553 1550 1547 1547 1545 1546 1548 1549 1550 1551 1551 1552 1553 1553 1555
1521 1529 1538 1553 1558 1569 1567 1572 1556 1554 1552 1549 1551 1551 1553 1553 1555 1557 1560 1561 1563 1562 1563 1563 1562 1561 1561 1559 1559 1559 1558 1556 1554 1552 1549 1545 1542 1540 1540 1539 1537 1538 1539 1540 1541 1542 1544 1544 1545